Simultaneous Nadir Overpasses (SNOs) Predictions

Prediction of SNOs between LANDSAT-8 and METOP-A Satellite Orbit:

Table of predicted SNOs for the next 14.0 days since TLE Epoch: 11/2/2019
Index Date (LANDSAT-8) Time (LANDSAT-8) Lat,Lon (LANDSAT-8) SZA (LANDSAT-8 ) Date (METOP-A) Time (METOP-A) Lat,Lon (METOP-A) SZA (METOP-A ) Distance(km) Time Diff (sec)
1 11/04/2019 10:12:12 81.48, 73.38 99.81 11/04/2019 10:11:13 81.48, 73.47 99.79 1.52 59
2 11/04/2019 11:01:39 -81.47,-119.08 80.20 11/04/2019 11:01:53 -81.48,-118.97 80.18 2.05 14
3 11/07/2019 05:46:27 81.47, 139.75 100.64 11/07/2019 05:45:37 81.48, 139.74 100.62 0.98 50
4 11/07/2019 06:35:53 -81.49, -52.29 79.31 11/07/2019 06:36:16 -81.48, -52.27 79.30 1.05 23
5 11/10/2019 01:20:40 81.48,-153.52 101.48 11/10/2019 01:19:59 81.48,-153.60 101.45 1.33 41
6 11/10/2019 02:10:07 -81.48, 14.06 78.52 11/10/2019 02:10:39 -81.48, 14.01 78.51 1.01 32
7 11/12/2019 20:54:55 81.48, -87.23 102.23 11/12/2019 20:54:23 81.48, -87.35 102.20 2.00 32
8 11/12/2019 21:44:22 -81.48, 80.38 77.77 11/12/2019 21:45:03 -81.48, 80.28 77.77 1.66 41
9 11/15/2019 16:29:09 81.49, -20.58 102.98 11/15/2019 16:28:46 81.48, -20.72 102.94 2.54 23




NCC Satellite Simultaneous Nadir Overpasses (SNOs) Prediction Service
